Regional Weather Roundup
Issued by NWS Albany, NY

Home | Current Version | Previous Version | Text Only | Print | Product List | Glossary On
Versions: 1 2 3 4 5 6 7 8 9 10 11 12 13 14 15 16 17 18 19 20 21 22 23 24 25 26 27 28 29 30 31 32 33 34 35 36 37 38 39 40 41 42 43 44 45 46 47 48 49 50
000
ASUS41 KALY 191810
RWRALY

NEW YORK STATE HOURLY WEATHER ROUNDUP
NATIONAL WEATHER SERVICE ALBANY NY
200 PM EDT FRI SEP 19 2014

NOTE: "FAIR" INDICATES FEW OR NO CLOUDS BELOW 12,000 FEET WITH NO
SIGNIFICANT WEATHER AND/OR NO OBSTRUCTIONS TO VISIBILITY.

NYZ032-033-038>043-046>054-057>066-NYZ062>081-191900-
EAST


CITY           SKY/WX    TMP DP  RH WIND       PRES   REMARKS
ALBANY         MOSUNNY   58  35  42 NE6       30.38F
GLENS FALLS    SUNNY     55  30  38 CALM      30.38F
POUGHKEEPSIE   SUNNY     63  40  42 VRB6      30.34F
NEWBURGH       MOSUNNY   61  45  55 E12       30.36F
MONTGOMERY     SUNNY     63  42  46 VRB6      30.34F
WHITE PLAINS   MOSUNNY   61  40  45 S8        30.35S
ISLIP          MOSUNNY   64  43  46 N12G17    30.33F
NEW YORK CITY  MOSUNNY   62  44  51 NE13      30.35S
CENTRAL PARK   MOSUNNY   64  43  46 VRB7      30.38S
$$

NYZ005>009-017-018-044>046-055-056-191900-
CENTRAL


CITY           SKY/WX    TMP DP  RH WIND       PRES   REMARKS
FULTON         SUNNY     58  38  47 W3        30.34F
SYRACUSE       SUNNY     58  38  47 W5        30.33F
ROME           SUNNY     56  35  45 E7        30.36F
ELMIRA         SUNNY     61  40  45 CALM      30.30F
BINGHAMTON     SUNNY     55  38  52 CALM      30.32F
MONTICELLO     SUNNY     59  43  55 CALM      30.35S
$$

NYZ026>034-041>043-191900-
NORTH


CITY           SKY/WX    TMP DP  RH WIND       PRES   REMARKS
WATERTOWN      SUNNY     60  34  37 VRB3      30.34F
FORT DRUM      NOT AVBL
MASSENA        SUNNY     56  32  40 E8        30.37F
SARANAC LAKE   SUNNY     52  26  36 SE6       30.31F
PLATTSBURGH    SUNNY     52  27  38 E5        30.38F
$$

NYZ001>004-010>016-019>021-191900-
WEST


CITY           SKY/WX    TMP DP  RH WIND       PRES   REMARKS
NIAGARA FALLS  SUNNY     61  43  51 MISG      30.28F
BUFFALO        MOSUNNY   61  39  44 E8        30.27F
DUNKIRK        SUNNY     61  47  59 N12       30.26F
JAMESTOWN      SUNNY     59  45  58 CALM      30.26F
WELLSVILLE     SUNNY     61  44  53 E7        30.29F
ROCHESTER      MOSUNNY   59  39  47 E8        30.32F
PENN YAN       SUNNY     58  38  47 VRB6      30.32F
$$

             KEY
       WCI = WIND CHILL INDEX
       VSB = VISIBILITY
       HX  = HEAT INDEX
$$


USA.gov is the U.S. government's official web portal to all federal, state and local government web resources and services.